Location: Foligno
(42.9600°N, 12.7050°E)
Time: 12:10:15
(UTC+02:00)

ISS - Pass Details

Date: 18 May 2018
Orbit: 402 x 407 km, 51.6° (Epoch: 24 May)

Event Time Altitude Azimuth Distance (km) Brightness Sun altitude
Rises 04:57:25 0° 305° (NW) 2,319 -0.2 -8.0°
Reaches altitude 10° 04:59:32 10° 310° (NW) 1,457 -1.1 -7.6°
Maximum altitude 05:02:44 52° 28° (NNE) 508 -2.9 -7.2°
Drops below altitude 10° 05:05:55 10° 107° (ESE) 1,452 -0.4 -6.7°
Sets 05:08:01 0° 112° (ESE) 2,309 0.5 -6.4°
